Regional Weather Roundup
Issued by NWS

Home | Current Version | Previous Version | Text Only | Print | Product List | Glossary On
Versions: 1 2 3 4 5 6 7 8 9 10 11 12 13 14 15 16 17 18 19 20 21 22 23 24 25 26 27 28 29 30 31 32 33 34 35 36 37 38 39 40 41 42 43 44 45 46 47 48 49 50
279
ASUS43 KMKX 291311
RWRWI

WISCONSIN REGIONAL WEATHER ROUNDUP
NATIONAL WEATHER SERVICE MILWAUKEE/SULLIVAN WI
800 AM CDT MON MAY 29 2017

NOTE: "FAIR" INDICATES FEW OR NO CLOUDS BELOW 12,000 FEET WITH NO
SIGNIFICANT WEATHER AND/OR OBSTRUCTIONS TO VISIBILITY.

WIZ001-002-006>008-014>016-023>028-291400-
NORTHWEST WISCONSIN

CITY           SKY/WX    TMP DP  RH WIND       PRES   REMARKS
SUPERIOR ARPT  NOT AVBL
ASHLAND        CLOUDY    56  51  84 W8        29.64S
HAYWARD        CLOUDY    53  48  83 W6        29.68S
SIREN          DRIZZLE   53  50  89 W8        29.72R
CUMBERLAND     CLOUDY    50  46  87 W12       29.72R
RICE LAKE      CLOUDY    53  49  87 W9        29.73R
CHETEK         CLOUDY    52  49  89 NW8       29.72R
LADYSMITH      CLOUDY    53  50  90 SW8       29.71S
EAU CLAIRE     CLOUDY    54  50  86 W13       29.73R
MENOMONIE      CLOUDY    55  49  81 W12G22    29.75R
NEW RICHMOND   CLOUDY    53  48  84 W8        29.75S
OSCEOLA        CLOUDY    54  48  81 W10G18    29.77S
$$

WIZ003>005-009-010-017-018-291400-
NORTH CENTRAL WISCONSIN

CITY           SKY/WX    TMP DP  RH WIND       PRES   REMARKS
MANITOWISH WTR CLOUDY    50  50 100 W7        29.64S
ARBOR VITAE    CLOUDY    52  50  92 W9        29.65R
WOODRUFF       CLOUDY    52  50  92 W9        29.65R
RHINELANDER    CLOUDY    53  49  86 W12       29.67R
EAGLE RIVER    CLOUDY    50  49  95 W9        29.64S
LAND O LAKES   CLOUDY    50  49  93 W6        29.65R
PHILLIPS       CLOUDY    49  49  98 SW3       29.67S
TOMAHAWK       PTSUNNY   52  47  83 SW8       29.69R
MEDFORD        CLOUDY    49  47  92 W8        29.70S
MERRILL        CLOUDY    52  49  90 W10       29.70R
$$

WIZ029-030-035-036-043>047-291400-
CENTRAL WISCONSIN

CITY           SKY/WX    TMP DP  RH WIND       PRES   REMARKS
WAUSAU         CLOUDY    53  48  83 W8        29.69R
MOSINEE        CLOUDY    54  50  87 SW10      29.72R
MARSHFIELD     CLOUDY    52  47  83 W10       29.72R
STEVENS POINT  CLOUDY    54  46  76 W7        29.72S
WAUPACA        CLOUDY    60  48  66 W13       29.72S
WAUTOMA        PTSUNNY   58  48  69 W14       29.74S
WISC RAPIDS    CLOUDY    54  48  80 W10       29.74S
CAMP DOUGLAS   MOSUNNY   56  48  73 W14G23    29.75S
$$

WIZ011>013-019>022-031-037>040-048>050-291400-
NORTHEAST WISCONSIN

CITY           SKY/WX    TMP DP  RH WIND       PRES   REMARKS
ANTIGO         CLOUDY    53  49  87 W9        29.69S
SHAWANO        MOSUNNY   58  50  75 SW6       29.69S
OCONTO         CLOUDY    57  49  75 W9        29.67F
STURGEON BAY   CLOUDY    57  50  77 SW6       29.68F
GREEN BAY      CLOUDY    59  52  77 W14       29.69S
MANITOWOC      SUNNY     62  49  62 W13G18    29.70S
APPLETON       MOSUNNY   57  46  67 W13       29.70S
CLINTONVILLE   PTSUNNY   57  46  67 W10G16    29.70S
OSHKOSH        SUNNY     59  48  67 SW8G16    29.72S
$$

WIZ032>034-041-042-053>061-291400-
SOUTHWEST WISCONSIN

CITY           SKY/WX    TMP DP  RH WIND       PRES   REMARKS
LA CROSSE      PTSUNNY   57  48  72 W14       29.79R
SPARTA         CLOUDY    55  48  78 W10G16    29.78S
VIROQUA        MOSUNNY   55  47  73 MISG      29.81R
BOSCOBEL       SUNNY     60  47  61 W13G20    29.81S
PRAIRIE DU CHI SUNNY     60  45  57 W16       29.82F
PLATTEVILLE    SUNNY     59  49  70 W15       29.83S
$$

WIZ056-057-062-063-064-067-068-291400-
SOUTH CENTRAL WISCONSIN

CITY           SKY/WX    TMP DP  RH WIND       PRES   REMARKS
REEDSBURG      SUNNY     57  47  69 W14G21    29.77S
BARABOO/DELLS  SUNNY     57  45  64 W16       29.77S
LONE ROCK      SUNNY     60  46  59 W15G25    29.79F
MINERAL POINT  SUNNY     59  46  63 W16       29.80F
MADISON        MOSUNNY   60  46  59 VRB6      29.77S
MIDDLETON      MOSUNNY   60  47  60 W15G22    29.78F
WATERTOWN      SUNNY     60  49  66 SW10      29.76S
MONROE         CLOUDY    57  46  67 W9        29.80F
JANESVILLE     PTSUNNY   63  46  55 W13       29.81R
$$

WIZ051-052-058>065-066-070>072-291400-
SOUTHEAST WISCONSIN

CITY           SKY/WX    TMP DP  RH WIND       PRES   REMARKS
MILWAUKEE      SUNNY     65  46  50 W15G23    29.75S
WAUKESHA       SUNNY     61  45  55 W15G21    29.76F
MILWAUKEE/TIMM SUNNY     61  45  55 W16       29.75F
RACINE         SUNNY     64  47  53 W10G18    29.77S
KENOSHA        SUNNY     64  49  57 W15       29.77S
FOND DU LAC    SUNNY     60  46  59 W10G18    29.73S
SHEBOYGAN      SUNNY     60  50  69 W14       29.71S
WEST BEND      SUNNY     61  46  59 W13       29.73F
JUNEAU         SUNNY     58  48  68 SW13      29.76F
$$

LSZ147-162-291400-
LAKE SUPERIOR

STATION/POSITION TIME  TEMP    WIND        PRES    WAVE
                       AIR SEA DIR/SP/G            HT/PER
                 (UTC) (F)     (DEG/KT/KT) (MB)    (FT/S)
W MID LAKE BUOY  1150   41 37  280/  6/ 10 1001.7R   1/ 3
DEVILS ISLAND    1300   46     230/ 17/ 19 1002.8R
PORT WING        1140   54     250/ 12/ 15 1003.7R
SAXON HARBOR     1230   55     260/  6/ 14 1003.4S
$$

LMZ867-665-643>646-291400-
LAKE MICHIGAN

STATION/POSITION TIME  TEMP    WIND        PRES    WAVE
                       AIR SEA DIR/SP/G            HT/PER
                 (UTC) (F)     (DEG/KT/KT) (MB)    (FT/S)
CHAMBERS ISLAND  1240   56     200/  5/  9 1004.4S
N MID LAKE BUOY  1150   45 41  220/ 10/ 12 1005.1R   1/ 4
NORTHPORT PIER   1240   58     250/  4/ 11 1004.4S
SISTER BAY       1051   55     240/ 11/ 12   N/A
KEWAUNEE LAKESHO 1242   59     270/  5/  8 1004.8F
SHEBOYGAN LAKESH 1300   60     270/ 16/ 19 1005.5F
PORT WASHINGTON  1240   63     270/  7/ 13 1007.5S
ATWATER BUOY     1209   60     250/ 14/ 17 1007.3R
MILWAUKEE LAKESH 1250   63     260/ 12/ 13   N/A
S MID LAKE BUOY  1150   52 47  240/ 12/ 12 1007.6R   1
KENOSHA   LAKESH 1300   64     260/ 15/ 19 1007.8
$$

TC  - TEMPERATURE IN CELSIUS
VSB - VISIBILITY IN STATUTE MILES
WCI - WIND CHILL INDEX
HX  - HEAT INDEX





USA.gov is the U.S. government's official web portal to all federal, state and local government web resources and services.